Regional Weather Roundup
Issued by NWS

Home | Current Version | Previous Version | Graphics & Text | Print | Product List | Glossary On
Versions: 1 2 3 4 5 6 7 8 9 10 11 12 13 14 15 16 17 18 19 20 21 22 23 24 25 26 27 28 29 30 31 32 33 34 35 36 37 38 39 40 41 42 43 44 45 46 47 48 49 50
000
ASUS43 KLMK 271810
RWRKY
KENTUCKY REGIONAL WEATHER ROUNDUP
NATIONAL WEATHER SERVICE LOUISVILLE KY
200 PM EDT WED AUG 27 2014

NOTE "FAIR" INDICATES FEW OR NO CLOUDS BELOW 12,000 FEET
WITH NO SIGNIFICANT WEATHER AND/OR OBSTRUCTIONS TO VISIBILITY.

KYZ001>023-026-027-061>063-070>075-271900-
WESTERN AND SOUTH CENTRAL KENTUCKY

CITY           SKY/WX    TMP DP  RH WIND       PRES   REMARKS
PADUCAH        FAIR      93  72  50 NE3       30.07F HX 101
HENDERSON      MOSUNNY   90  73  58 N5        30.07F HX  98
OWENSBORO      MOSUNNY   91  75  59 NE8       30.08F HX 101
HOPKINSVILLE   MOSUNNY   90  72  55 NE8       30.08F HX  97
BOWLING GREEN  MOSUNNY   88  71  57 E7        30.09F HX  94
GLASGOW        MOSUNNY   87  70  56 NE5       30.10F HX  92
$$

KYZ024-025-028>034-038-045-046-053-271900-
NORTH CENTRAL KENTUCKY

CITY           SKY/WX    TMP DP  RH WIND       PRES   REMARKS
LOUISVILLE/SDF MOSUNNY   93  73  52 N6        30.07F HX 102
LOUISVILLE/LOU SUNNY     91  72  53 N7        30.08F HX  98
FORT KNOX      MOSUNNY   89  73  60 VRB5      30.08F HX  96
$$

KYZ035>037-039>044-047>052-055>060-089>105-271900-
NORTHEAST KENTUCKY

CITY           SKY/WX    TMP DP  RH WIND       PRES   REMARKS
LEXINGTON      SUNNY     88  70  55 CALM      30.11F HX  93
COVINGTON      MOSUNNY   89  70  53 W8        30.08F HX  94
FRANKFORT      MOSUNNY   88  71  57 N5        30.08F HX  94
$$

KYZ054-064>069-076>088-106>120-271900-
SOUTHEAST KENTUCKY

CITY           SKY/WX    TMP DP  RH WIND       PRES   REMARKS
JACKSON        PTSUNNY   82  67  60 CALM      30.14F
LONDON         SUNNY     85  65  51 N9        30.14S
SOMERSET       PTSUNNY   84  64  51 E5        30.13S
MIDDLESBORO    SUNNY     85  61  44 CALM      30.12F
MONTICELLO     PTCLDY    86  70  58 NE7       30.14S HX  90
$$



USA.gov is the U.S. government's official web portal to all federal, state and local government web resources and services.